This is the latest recevied weather packets stored in our database for station/object DC0PP-10. If no packets are shown the sender has not sent any weather packets the latest 10 day(s).
| Time | Temp. | Humidity | Pressure | Rain* | Wind** | Luminosity | Snow |
|---|---|---|---|---|---|---|---|
| 1777894849 | 23.89° C | 42% | 1015 hPa | - | - | - | - |
| 1777893949 | 24.44° C | 42% | 1015.1 hPa | - | - | - | - |
| 1777893048 | 23.33° C | 45% | 1015.2 hPa | - | - | - | - |
| 1777892148 | 23.33° C | 47% | 1015.4 hPa | - | - | - | - |
| 1777891248 | 23.33° C | 48% | 1015.6 hPa | - | - | - | - |
| 1777890348 | 22.78° C | 49% | 1015.6 hPa | - | - | - | - |
| 1777889448 | 22.22° C | 50% | 1015.7 hPa | - | - | - | - |
| 1777888548 | 22.78° C | 52% | 1015.7 hPa | - | - | - | - |
| 1777887647 | 21.67° C | 54% | 1015.7 hPa | - | - | - | - |
| 1777886747 | 20.56° C | 57% | 1015.8 hPa | - | - | - | - |
| 1777885847 | 20.56° C | 57% | 1015.9 hPa | - | - | - | - |
| 1777884947 | 20° C | 57% | 1015.9 hPa | - | - | - | - |
| 1777884047 | 19.44° C | 58% | 1016 hPa | - | - | - | - |
| 1777883147 | 19.44° C | 59% | 1016.1 hPa | - | - | - | - |
| 1777882247 | 18.89° C | 64% | 1016.2 hPa | - | - | - | - |
| 1777881346 | 17.78° C | 63% | 1016.1 hPa | - | - | - | - |
| 1777880446 | 16.67° C | 66% | 1015.9 hPa | - | - | - | - |
| 1777879546 | 15.56° C | 68% | 1015.9 hPa | - | - | - | - |
| 1777878646 | 15.56° C | 68% | 1015.9 hPa | - | - | - | - |
| 1777877746 | 15.56° C | 66% | 1015.9 hPa | - | - | - | - |
| 1777876845 | 15° C | 70% | 1015.8 hPa | - | - | - | - |
| 1777875949 | 15° C | 68% | 1015.9 hPa | - | - | - | - |
| 1777875049 | 14.44° C | 70% | 1015.8 hPa | - | - | - | - |
| 1777874148 | 13.89° C | 71% | 1016.1 hPa | - | - | - | - |
| 1777873248 | 12.78° C | 76% | 1016.1 hPa | - | - | - | - |
* Rain since midnight (hover to see other rain measurements)
** Current wind speed in m/s (hover to see current wind gust speed)